Weather in Trujillo

Venezuela     9°22′13″N   70°26′13″W
temp.,
°C
wind,
m/s
gust,
m/s
humid.,
%
clouds,
%
prec.,
mm/h
press.,
hPa
HPBL,
m
15 april, thu
thu1523:00+16sse3392100 1.3 101667
02:00+15sse2288100 1.4 101432
05:00+14sse2187100 0.1 101417
08:00+17ese127658 0.1 1015178
11:00+22nne235797 0.0 10141040
14:00+22n127138 1.2 10121005
17:00+19ne128458 3.8 1011360
20:00+16sse2393100 4.8 101359
16 april, fri
fri1623:00+15sse339156 0.1 101583
02:00+14sse339092 0.1 101466
05:00+14sse3387100 0.0 101465
08:00+17se2377100 0.0 1014206
11:00+23nne1253100 0.0 10141244
14:00+22nne1268100 0.9 10121097
17:00+19e1285100 4.0 1011373
20:00+15sse3392100 5.1 101567
17 april, sat
sat1723:00+15sse3490100 0.1 101673
02:00+14sse3487100 0.1 101581
05:00+14sse3386100 0.1 101658
08:00+16se2379100 0.1 1017188
11:00+22nne126183 0.1 10161134
14:00+20nne1277100 2.4 1014813
17:00+20ne127793 2.4 1013618
20:00+16sse2291100 4.1 101690
18 april, sun
sun1823:00+15sse339097 0.4 101875
02:00+14sse338975 0.4 101771
05:00+13sse3480100 0.0 101771
08:00+16sse237178 0.0 1018232
11:00+22nne1252100 0.0 10161166
14:00+21nne1259100 0.1 1014961
17:00+21nne1262100 0.2 1013920
20:00+15sse338614 0.5 101762
19 april, mon
mon1923:00+14sse347853 0.1 101970
02:00+13sse347645 0.1 101770
05:00+13sse4474100 0.0 101774
08:00+17se346978 0.0 1017240
11:00+23nne134642 0.0 10161289
14:00+24n23455 0.0 10141687
17:00+21nne12585 0.1 10131059
20:00+15sse338295 0.3 101663